Flag for Finland Weather past 2 weeks in Mariehamn, Finland

Now
52 °F

Sunny.


Feels Like: 52 °F
Forecast: 36 / 51 °F
Wind: 2 mph from South

Location: Mariehamn / Aland Island


UV Index: 0 (Low)

Visibility: 10 mi


Pressure: 30.30 "Hg

Humidity: 67%

Dew point: 41 °F

Location of MariehamnLocation

Historic Weather in Mariehamn

°F

Mariehamn temperature yesterday

Maximum temperature yesterday: 50 °F (at 5:20 PM)
Minimum temperature yesterday: 30 °F (at 5:20 AM)
Average temperature yesterday: 40 °F

Past Weeks' High & Low Weather Summary

 TemperatureHumidityPressure
High52 °F (Apr 14, 1:20 PM)100% (Apr 6, 3:20 AM)30.30 "Hg (Apr 6, 3:20 AM)
Low28 °F (Apr 7, 3:50 AM)31% (Apr 9, 3:50 PM)29.27 "Hg (Apr 14, 1:50 AM)
Average40 °F81%29.88 "Hg
* Reported Apr 5 9:20 AM — Apr 20 9:50 AM, Mariehamn, Weather by CustomWeather, © 2014

Note: Actual official high and low records may vary slightly from our data, if they occured in-between our weather recording intervals... More about our weather records

Advertising

Historic Weather Conditions — Data for Previous 24 hours

 ConditionsComfort  
Time TempWeatherWind HumidityBarometerVisibility
9:50 AM
Apr 20
48 °FPassing clouds.5 mph76%30.30 "HgN/A
9:20 AM48 °FSunny.2 mph76%30.27 "Hg10 mi
8:50 AM45 °FSunny.No wind81%30.27 "Hg10 mi
8:20 AM43 °FSunny.No wind87%30.27 "Hg10 mi
7:50 AM36 °FSunny.1 mph100%30.27 "Hg10 mi
7:20 AM32 °FSunny.1 mph100%30.27 "Hg10 mi
6:50 AM30 °FClear.2 mph100%30.27 "Hg10 mi
6:20 AM30 °FClear.2 mph100%30.27 "Hg10 mi
5:50 AM30 °FClear.2 mph100%30.27 "Hg10 mi
5:20 AM32 °FIce fog.1 mph100%30.27 "HgN/A
4:50 AM32 °FIce fog.No wind93%30.27 "Hg2 mi
4:20 AM32 °FClear.1 mph100%30.27 "Hg10 mi
3:50 AM32 °FClear.No wind100%30.27 "Hg10 mi
3:20 AM34 °FClear.No wind100%30.27 "Hg10 mi
2:50 AM34 °FClear.No wind100%30.27 "Hg10 mi
2:20 AM34 °FClear.No wind93%30.27 "Hg10 mi
1:50 AM34 °FClear.No wind100%30.27 "Hg10 mi
1:20 AM34 °FClear.No wind93%30.27 "Hg10 mi
12:50 AM36 °FClear.No wind93%30.27 "Hg10 mi
12:20 AM37 °FClear.3 mph93%30.27 "Hg10 mi
11:50 PM
Apr 19
39 °FClear.3 mph87%30.27 "Hg10 mi
11:20 PM37 °FClear.1 mph93%30.27 "Hg10 mi
10:50 PM37 °FClear.1 mph93%30.27 "Hg10 mi
10:20 PM39 °FClear.2 mph87%30.27 "Hg10 mi
9:50 PM41 °FSunny.3 mph81%30.27 "Hg10 mi
9:20 PM41 °FSunny.3 mph87%30.27 "Hg10 mi
8:50 PM43 °FSunny.5 mph81%30.27 "Hg10 mi
8:20 PM45 °FSunny.6 mph76%30.24 "Hg10 mi
7:50 PM45 °FSunny.7 mph76%30.24 "Hg10 mi
7:20 PM46 °FSunny.8 mph71%30.27 "Hg10 mi
6:50 PM48 °FSunny.6 mph66%30.27 "Hg10 mi
6:20 PM50 °FPassing clouds.6 mph62%30.27 "HgN/A
5:50 PM50 °FPassing clouds.6 mph67%30.27 "HgN/A
5:20 PM50 °FSunny.7 mph67%30.27 "Hg10 mi
4:50 PM48 °FPassing clouds.7 mph71%30.27 "HgN/A
4:20 PM48 °FPassing clouds.7 mph76%30.30 "HgN/A
3:50 PM48 °FSunny.7 mph76%30.30 "Hg10 mi
3:20 PM48 °FSunny.7 mph76%30.30 "Hg10 mi
2:50 PM48 °FPassing clouds.6 mph82%30.30 "HgN/A
2:20 PM46 °FPassing clouds.7 mph82%30.30 "HgN/A
1:50 PM45 °FSunny.6 mph87%30.30 "Hg10 mi
1:20 PM45 °FPassing clouds.6 mph81%30.30 "HgN/A
12:50 PM43 °FPassing clouds.7 mph87%30.30 "HgN/A
12:20 PM43 °FSunny.7 mph87%30.30 "Hg10 mi
11:50 AM41 °FSunny.8 mph93%30.30 "Hg10 mi
11:20 AM45 °FSunny.8 mph87%30.30 "Hg10 mi
10:50 AM48 °FSunny.3 mph100%30.30 "Hg10 mi
10:20 AM43 °FPassing clouds.2 mph100%30.30 "HgN/A
Weather by CustomWeather, © 2014

See weather overview